Location: Bakov nad Jizerou
(50.4784°N, 14.9394°E)
Time: 12:45:53
(UTC+00:00)

SL-8 R/B - Pass Details

Date: 31 October 2021
Orbit: 656 x 667 km, 48.4° (Epoch: 29 November)

Event Time Altitude Azimuth Distance (km) Brightness Sun altitude
Rises 17:58:20 0° 281° (W) 2,987 8.5 -22.8°
Reaches altitude 10° 18:00:53 10° 271° (W) 2,075 7.4 -23.2°
Maximum altitude 18:05:03 30° 210° (SSW) 1,178 5.1 -23.9°
Enters shadow 18:06:27 25° 180° (S) 1,312 5.1 -24.1°
